Objednávky za rok 2015

január február marec apríl máj jún júl august september október november december

Číslo Dátum vyhotovenia Názov a adresa dodávateľa IČO Popis plnenia Odhadovaná suma bez DPH Zmluva ak faktúra súvisí so  zmluvou
9787 01.06.2015 Iglass, Zvolen  10925961 zadklenie okien 158,00  nie
9788 01.06.2015 Decon, s.r.o., Žilina 30224349 výmeník doskový 1 590,00  nie
9789 01.06.2015 VKP Armatúry, s.r.o. Žilina 36807265 armatúry 2 424,00  nie
9790 02.06.2015 Smart Computer, s.r.o. Zvolen  31629881 podložky pod nohy pri práci s PC 80,00  nie
9791 02.06.2015 storno objednávky   storno objednávky    
9792 02.06.2015 P.Slosiarik, Sloso,Zvolen  37059009 oprava defektu 25,00  nie
9793 02.06.2015 DKC, s.ro., Zvolen  31571727 nafta motorová - 06/2015 4 500,00  áno
9794 02.06.2015 NCH Slovakia, s.r.o., Bratislava 34096043 čistenie chladičov 4 330,00  nie
9795 02.06.2015 PSG Doprastav, a.s, Zvolen 31333320 betón C16/20 1 212,00  nie
9796 02.06.2015 Beličková, s.r.o., Zvolen  45902836 farba, striebrenka, štetce 25,31  nie
9797 02.06.2015 Technik, s.r.o.,Zvolen  47531711 chemoprén, klince 27,00  nie
9798 02.06.2015 Sliačan, s.r.o., Zvolen  36054372 prenájom zametacieho voza 270,00  nie
9799 02.06.2015 BVH, s.r.o., Prievidza 35674148 OCHPP 480,00  áno
9800 02.06.2015 Sloving, s.r.o., Bratislava 17321069 údržba a oprava technol.zariad. 14 139,00  áno
9801 02.06.2015 Sloving, s.r.o., Bratislava 17321069 údržba a oprava technol.zariad. 14 139,00  áno
9802 02.06.2015 PKS Elektro, s.r.o, B.Bystrica 43890164 prehliadka generátorov.vypínačov 1 064,50  nie
9803 02.06.2015 Roexim, s.r.o., Zvolen  46472878 skrutky 134,00  nie
9804 02.06.2015 SSE, a.s., Žilina 36403008 zaistenie vzdušných vedení 400,00  nie
9805 02.06.2015 Unicarback, s.r.o., Žilina 46643206 kosenie trávnatýh plôch 07/2015 3 019,50  áno
9806 02.06.2015 Beličková, s.r.o., Zvolen  45902836 riedidlo, pur pena 17,00  nie
9807 02.06.2015 BVH, s.r.o., Prievidza 35674148 monterky zváracie 326,00  áno
9808 02.06.2015 Eurosteel, s.r.o., Zvolen 36057819 plech 45,60  nie
9809 02.06.2015 Sabko, s.r.o., Zvolen  44493002 kreslo kancelárske, doska tesniaca 325,00  nie
9810 02.06.2015 Chiva, s.r.o., Zvolen 46472762 armatúry, tesnenie 3 872,00  nie
9811 04.06.2015 Š.Francisty, Banská Bystrica 32000057 prenájom montážnej plošiny 167,00  nie
9812 05.06.2015 Technik, s.r.o.,Zvolen  47531711 vodoinštalč. Materiál 165,00  nie
9813 05.06.2015 Beličková, s.r.o., Zvolen  45902836 potreby pre maľovanie 69,00  nie
9814 05.06.2015 Tempo Kondela, s.r.o.,Tvrdošín 36409154 PC stôl, komoda  130,00  nie
9815 05.06.2015 Krosit, s.r.o.,Brno  29354102 PC stôl, 136,00  nie
9816 05.06.2015 BVH, s.r.o., Prievidza 35674148 lano statické, karabína 73,00  áno
9817 05.06.2015 Chiva, s.r.o., Zvolen 46472762 prechod, koleno 23,00  nie
9818 05.06.2015 Narimex, s.r.o.,Bratislava 679976 oprava brúsky, vŕtačky 100,00  nie
9819 05.06.2015 Imet Ake, s.r.o., Bratislava 31341870 ložisko 14,00  nie
9820 05.06.2015 Wittex, s.r.o., Veľké Kostoľany 36231720 prírubové tesnenia  ploché  16,00  nie
9821 05.06.2015 Roexim, s.r.o., Zvolen  46472878 skrutky, matice 55,00  nie
9822 05.06.2015 J.Hronček, Detva 41140125 krovinorez 725,00  nie
9823 05.06.2015 Sféra, a.s., Bratislava 35757736 kvalifikovaný certifikát 65,00  nie
9824 08.06.2015 Autokodus, s.r.o., Zvolen  36530751 olej hydravulický, motorový, lekárni. 115,00  nie
9825 08.06.2015 XEPAP, s.r.o., Zvolen  31628605 cetropeny 15,00  áno
9826 08.06.2015 Agri Servis, s.r.o., Ludanice 36849685 servisná prehliadky nakladača 854,00  áno
9827 08.06.2015 Drucker, s.r.o., Čadca 44925417 tonery 598,00  nie
9828 08.06.2015 K.Holoubek, a.s., Bratislava 25060996 hnedé uhlie RF 153 118,00  áno
9829 09.06.2015 LDM, s.r.o., Bratislava 31381685 revízie IPV a nastavenie 4 300,00  nie
9830 09.06.2015 LDM, s.r.o., Bratislava 31381685 revízie regulač. Armatúra K 01 a K 02 4 300,00  nie
9831 11.06.2015 Technik, s.r.o.,Zvolen  47531711 štrk, cement 161,00  nie
9832 11.06.2015 Chiva, s.r.o., Zvolen 46472762 kohút navarovací, nátrubok  234,00  nie
9833 11.06.2015 Energo Control, s.r.o., Košice 36205788 profylaktika TG 01 a TG 5 2 302,00  nie
9834 11.06.2015 Zvarmat, s.r.o.,Brezno 36622567 elektródy EB 250,00  nie
9835 11.06.2015 Vittek Centrum, s.r.o., Zvolen 36005851 kôš na odpad.,lopaty, čakany.... 99,00  nie
9836 11.06.2015 TeSe, s.r.o., Zvolen  47524006 sada pre havarijné opravy 46,00  nie
9837 11.06.2015 Autoslužby, F.Finďo,Zvolen  37057286 oprava osobn. Automobilov 896,00  nie
9838 11.06.2015 Pokorný, s.r.o., Brno  46983864 tesniace šnúry  863,00  nie
9839 11.06.2015 Beličková, s.r.o., Zvolen  45902836 potreby pre maľovanie 150,00  nie
8940 11.06.2015 Rema Tip Top, s.r.o.,L.Vieska 31621643 dopravníkový pás, lepenie 618,00  nie
9841 11.06.2015 Technik, s.r.o.,Zvolen  47531711 kefy drôtené, lyžica murárska 47,00  nie
9842 11.06.2015 Autokodus, s.r.o., Zvolen  36530751 rgulátor napätia 50,00  nie
9843 12.06.2015 De LUX ZPS, s.r.o., Vráble 35934590 hygienické a čistiace potreby  498,00  áno
9844 12.06.2015 Duslo,a.s., Šaľa 35826487 odstránenie netesnosti  624,00  nie
9845 15.06.2015 OSKO, a.s., Banská Bystrica 36044717 zdroj  30,00  nie
9846 15.06.2015 PZM, s,r,o., Prievidza 44305940 rehliadka klimatizač.jednotiek 1 555,00  nie
9847 15.06.2015 Technik, s.r.o.,Zvolen  47531711 PUR pena, PVC rúry 44,00  nie
9848 15.06.2015 Vertical Industrial, s.r.o., BA 35830085 oprava priemysel.komína 35 766,00  áno
9849 15.06.2015 Sabko, s.r.o., Zvolen  44493002 odpor 25,00  nie
9850 16.06.2015 B & K, s.r.o., Bratislava 31361021 vyvažovanie sústrojenstva 855,00  nie
9851 16.06.2015 ZAT, a.s., Plzeň 45148431 prevent.prehliadka budiacich súprav 2 800,00  nie
9852 16.06.2015 Bilfinger Insdustrial, Most 47784709 oprava regulač. A spúšťac.ventilov 25 261,00  áno
9853 16.06.2015 Ekol, s.r.o., Martin 31646808 vibrodiagnostika TG 1 290,00  nie
9854 16.06.2015 Imet Ake, s.r.o., Bratislava 31341870 ložiská 55,00  nie
9855 16.06.2015 Trenčians.min.vody, a.s., BA 35867159 minerálna voda 282,00  nie
9856 16.06.2015 Pertex, s.r.o.,Bušince 36022942 bavlna čistiaca 282,00  nie
9857 16.06.2015 Mikro Trade, s.r.o, D.Streda 31421342 odborná prehliadka 438,00  nie
9858 16.06.2015 SEPO, s.r.o., Zv.Slatina 31605931 skrinky  hydrantové 1 445,70  nie
9859 17.06.2015 BVH, s.r.o., Prievidza 35674148 ochranné pracov.prostriedky 2 645,75  nie
9860 17.06.2015 ZVVZ Enven, or.zlož.,Košice 36743291 oprava ESO  K01 7 432,00  áno
9861 17.06.2015 SSE Distribúcia, a.s., Žilina 36442151 zaistenie vzdušných vedení 400,00  nie
9862 19.06.2015 TOI TOI & Dixi, s.r.o., Bratislava 36383074 vyčistenie prenosného WC 20,00  nie
9863 19.06.2015 Ekol, s.r.o., Martin 31646808 kontrola TG, kontrola pri nábehu 2 000,00  nie
9864 19.06.2015 VST Engeneering, s.r.o., Pardub. 25264087 revízia systému Antident + ND 5 062,00  nie
9865 19.06.2015 Narimex, s.r.o.,Bratislava 679976 brúska, vŕtačka,noha náhradná 300,80  nie
9866 22.06.2015 MK Staving, s.r.o., Zvolen 45665681 oprava strechy sklad č. 1 4 354,40  áno
9867 22.06.2015 MK Staving, s.r.o., Zvolen 45665681 oprava strechy sklad č. 2 4 354,40  áno
9868 22.06.2015 Autoslužby, F.Finďo,Zvolen  37057286 oprava klimatizácie, stabiliz. -osob.au. 976,00  nie
9869 22.06.2015 Spirax Sarco, s.r.o., Trnava 625566 diagnostika odvádzačov  506,00  nie
9870 22.06.2015 Tenix, s.r.o., Nitra 45455163 polymér  MS 90,00  nie
9871 22.06.2015 Inovation Slovakia, s.r.o., Prešov 31701892 spray, tesnenie 129,00  nie
9872 22.06.2015 PKS Elektro, s.r.o, B.Bystrica 43890164 odbor.prehliadky  a skúšky  9 414,00  áno
9873 22.06.2015 MK Staving, s.r.o., Zvolen 45665681 oprava strechy sklad olejov 2 847,50  áno
9874 24.06.2015 Chiva, s.r.o., Zvolen 46472762 oblúk DN 80, kohúty navarovacie 401,00  nie
9875 24.06.2015 EPO Zvolen, s.r.o., 652598 previnutie cievky 105,00  nie
9876 24.06.2015 Elbek, s.r.o., Príbovce 46646710 revízia, diagnostika 1 002,00  nie
9877 24.06.2015 XEPAP, s.r.o., Zvolen  31628605 kancelárske potreby 95,00  áno
9878 24.06.2015 PPA Inžiniering, s.r.o., Bratislava 31376045 úprava signaliz.dodávka modulov 795,00  nie
9879 26.06.2015 Ing,Godora, HSQteam, Prievid. 37700898 lanko, olej do krovin.,hlava vyžínacia. 85,00  nie
9880 26.06.2015 Inspekta, Ing. Paprčka, Zvolen 40242153 skúšky tesnosti a kontrola 910,00  nie
9881 26.06.2015 Murka, s.r.o., Zvolen 45582556 oprava vysielačky 40,00  nie
9882 26.06.2015 MTS Zvolen, s.r.o., 46089195 vyčistenie interiéru auta 55,00  nie